www.pogodaiklimat.ru

Погода и климат >> Архив погоды >> Казахстан >> Алматы


АРХИВ ПОГОДЫ в Алматы

Время (UTC), дата Ветер
(напр.,м/с)
 
Видим.   Явления Облачность Т
(С)
Тd
(С)
f
(%)
Тe
(С)
Тes
(С)
Комфортность P
(гПа)
Po
(гПа)
Тmin
(С)
Tmax
(С)
R
(мм)
R24
(мм)
S
(см)
21 16.07 штиль 0 н/о ясно +24.2 +9.6 40 +25 +25 комфорт 1002.3 910.6
00 17.07 штиль 0
{4}
20 км ясно +23.2 +10.5 45 +25 +25 комфорт 1002.8 910.7
03 17.07 штиль 0 20 км ясно +28.1 +14.3 43 +30 +41 жарко 1001.9 911.5
06 17.07 штиль 0 10 км 10/3 1000 м
[Cu hum Ac trans Ci fib]
+32.8 +9.6 24 +32 +41 жарко 1000.5 911.3 +23.0
09 17.07 штиль 0 10 км 10/3 1000 м
[Cu med, cong Ac trans Ci fib]
+34.4 +8.9 21 +33 +40 жарко 999.1 910.6
12 17.07 штиль 0 10 км 10/4 1000 м
[Cu med, cong Ci fib]
+33.9 +11.4 25 +33 +36 жарко 998.7 910.1
15 17.07 штиль 0 10 км 10/3 1000 м
[Cu med, cong Ci fib]
+29.9 +15.1 41 +32 +32 жарко 1000.8 911.0 +34.9
18 17.07 штиль 0 н/о 10/0
[Ci fib]
+26.9 +10.7 36 +28 +28 жарко 1003.0 912.0 +34.9
21 17.07 штиль 0 н/о 6/3 1000 м
[Cu hum Ci fib]
+25.0 +9.8 38 +26 +26 жарко 1003.1 911.6
00 18.07 штиль 0
{4}
20 км 10/3 1000 м
[Cu hum Ac lent Ci fib]
+23.8 +9.5 40 +25 +25 комфорт 1003.7 911.7
03 18.07 штиль 0 10 км 1/1 1000 м
[Cu med, cong]
+28.6 +11.3 34 +29 +39 жарко 1002.9 912.4
06 18.07 СВ 1 10 км 1/1 1000 м
[Cu med, cong]
+33.8 +3.7 15 +31 +50 жарко 1000.5 911.6 +23.8
09 18.07 штиль 0 10 км 1/1 600 м
[Cb cap]
+35.2 +3.2 14 +32 +50 жарко 999.0 910.5
12 18.07 СВ 1 10 км 1/1 600 м
[Cb cap]
+34.6 +4.0 15 +32 +36 жарко 998.6 910.0
15 18.07 ЮВ 1 10 км ясно +29.1 +10.2 31 +29 +29 жарко 1001.2 911.0 +35.7
18 18.07 ЮВ 1 н/о ясно +28.4 +3.2 20 +27 +27 жарко 1001.6 911.0 +35.7
21 18.07 СВ 1 н/о ясно +27.4 +3.9 22 +26 +26 жарко 1001.6 910.7
00 19.07 З 1
{4}
10 км 3/0
[Ac cast]
+25.4 +3.3 24 +24 +25 комфорт 1003.0 911.4
03 19.07 штиль 0 20 км 3/3 1000 м
[Cu hum Ci fib]
+28.8 +8.4 28 +28 +36 жарко 1002.6 912.2
06 19.07 штиль 0 20 км 3/3 1000 м
[Cu hum]
+36.6 +6.9 16 +34 +51 опасность
солнечного
удара
999.6 911.6 +25.3
09 19.07 штиль 0 20 км 3/3 1000 м
[Cu hum Ci fib]
+36.8 +3.7 13 +34 +48 очень
жарко
998.8 910.8
12 19.07 штиль 0 20 км 3/3 1000 м
[Cu hum Ci fib]
+35.4 +3.3 13 +32 +36 жарко 999.0 910.6
15 19.07 ЮВ 1 10 км 10/4 600 м
[Cb cap Ac lent Ci]
+30.6 +4.1 19 +29 +29 жарко 1001.1 911.2 +37.4
18 19.07 штиль 0 н/о 10/4 600 м
[Cb cap Ac lent Ci]
+28.4 +6.4 25 +27 +27 жарко 1001.5 911.0 +37.4
21 19.07 штиль 0 н/о 10/3 600 м
[Cb cap Ac lent Ci]
+25.6 +6.4 29 +25 +25 комфорт 1002.1 910.7
00 20.07 штиль 0 20 км 10/5 600 м
[Cb cap Ac trans Ci]
+25.8 +6.7 30 +26 +26 жарко 1002.6 911.2
03 20.07 ЮВ 1 20 км 10/6 600 м
[Cb cap Ac As Cc]
+27.8 +13.3 41 +30 +31 жарко 1002.1 911.5
06 20.07 В 1 20 км 10/4 600 м
[Cb cap Ac trans Ci fib]
+34.1 +10.0 23 +33 +40 жарко 1000.1 911.4 +25.5
09 20.07 СВ 1 20 км 10/3 600 м
[Cb cap Ac trans Ci fib]
+36.2 +8.5 18 +34 +40 очень
жарко
998.4 910.4
12 20.07 штиль 0 20 км 10/4 600 м
[Cb cap Ac As]
+34.2 +6.5 18 +32 +33 жарко 999.6 910.8
15 20.07 СЗ 1 10 км 8/3 600 м
[Cb cap Ac trans]
+31.5 +6.1 20 +30 +30 жарко 1000.3 910.8 +37.6
18 20.07 штиль 0 н/о 10/5 600 м
[Cb cap Ac As]
+27.6 +8.8 31 +28 +28 жарко 1001.5 910.8 +37.6
21 20.07 ЮЗ 1 н/о слаб. ливневой дождь {гроза} 10/10 600 м
[Cb cap]
+25.6 +10.6 39 +27 +27 жарко 1003.9 912.5
00 21.07 штиль 0
{5}
10 км в посл. час гроза {ливн. осадки} 8/8 600 м
[Cb cap]
+23.0 +12.7 52 +26 +26 жарко 1006.1 913.8
03 21.07 штиль 0 10 км 8/4 1000 м
[Cu med, cong Ci fib]
+27.4 +14.6 45 +30 +35 жарко 1005.3 914.4
06 21.07 штиль 0 10 км 10/6 1000 м
[Cu med, cong Ac trans Ci fib]
+32.0 +7.0 21 +30 +35 жарко 1003.7 914.0 +21.3 3
09 21.07 Ю 1 10 км 10/8 1000 м
[Cu med, cong Ac trans Ci fib]
+34.7 +5.2 16 +32 +34 жарко 1001.9 913.1
12 21.07 СВ 1 10 км 10/8 600 м
[Cb cap Ac As]
+32.2 +5.3 19 +30 +30 жарко 1002.2 912.6
15 21.07 штиль 0 10 км 6/4 600 м
[Cb cap Ac cast]
+28.4 +9.8 31 +28 +28 жарко 1004.3 913.6 +35.0
18 21.07 штиль 0 н/о ясно +25.3 +9.0 36 +26 +26 жарко 1005.7 914.0 +35.0
21 21.07 штиль 0 н/о ясно +24.0 +9.3 39 +25 +25 комфорт 1004.9 912.9
00 22.07 ЮВ 1
{4}
20 км 1/0
[Ac lent]
+22.3 +7.8 39 +23 +23 комфорт 1005.2 912.6
03 22.07 штиль 0 20 км 3/1 1000 м
[Cu hum Ci fib]
+27.2 +12.9 41 +29 +38 жарко 1003.8 912.9
06 22.07 штиль 0 20 км 4/4 1000 м
[Cu med, cong]
+34.7 +10.7 23 +34 +49 очень
жарко
1000.5 912.0 +22.0
09 22.07 штиль 0 20 км 4/4 1000 м
[Cu med, cong]
+35.6 +8.0 18 +34 +46 очень
жарко
999.3 911.0
12 22.07 Ю 2 20 км 10/6 600 м
[Cb cap Ac trans Ci fib]
+32.7 +9.7 24 +32 +33 жарко 999.3 910.3
15 22.07 штиль 0 10 км {ливн. осадки} 10/5 600 м
[Cb cap Ac As Ci]
+30.5 +7.5 24 +29 +29 жарко 1001.2 911.4 +35.7
18 22.07 З 2 н/о {ливн. осадки} 10/4 600 м
[Cb cap Ac und Ci]
+30.2 +8.6 26 +30 +30 жарко 1004.1 913.9 +35.7 0.0
21 22.07 штиль 0 н/о 10/4 600 м
[Cb cap Ac lent Ci]
+26.0 +10.5 38 +27 +27 жарко 1005.1 913.7
00 23.07 штиль 0
{6}
20 км 8/3 600 м
[Cb cap Ac lent Ci]
+23.0 +8.8 40 +24 +24 комфорт 1006.1 914.4
03 23.07 штиль 0 4000 м дым 1/1 1000 м
[Cu med, cong]
+25.4 +9.9 38 +26 +36 жарко 1006.0 914.3
06 23.07 С 1 4000 м дым 1/1 1000 м
[Cu med, cong]
+30.7 +11.7 31 +31 +50 жарко 1003.2 913.3 +23.0
09 23.07 С 1 4000 м дым ясно +33.9 +8.5 21 +32 +50 жарко 1001.5 912.6
12 23.07 С 1 4000 м дым ясно +32.8 +12.1 28 +33 +37 жарко 1000.9 911.8
15 23.07 штиль 0 4000 м дым ясно +28.5 +13.8 41 +30 +30 жарко 1002.3 911.9 +34.3
18 23.07 ЮЗ 1 н/о ясно +25.2 +12.1 44 +27 +27 жарко 1005.1 913.5 +34.3

 

Местоположение метеостанции Алматы (Алматинская область, Казахстан): широта 43.23 долгота 76.93 высота над уровнем моря 851 м.

В архиве по умолчанию представлена погода в Алматы за последнюю неделю. Архивные данные за месяц целиком и за предыдущие месяцы, начиная с января 2011 года, Вы можете получить, выбрав интересующий диапазон дат из раскрывающегося списка и нажав кнопку "Ввод!".


*Определитесь, кто Вы:
робот инопланетянин человек

Внимание! Время в таблицах - всемирное. Для получения местного времени необходимо прибавить поправку, которая равна 6 ч.

Смотрите также архив погоды в соседних городах и на ближайших метеорологических станциях:

Погода в Алматы АМС (Алматинская область, Казахстан) (4 км)
Погода в Каменском плато (Алматинская область, Казахстан) (6 км)
Погода в Медеу (Алматинская область, Казахстан) (12 км)
Погода в Карасайском (Алматинская область, Казахстан) (15 км)
Погода в Шымбулаке (Алматинская область, Казахстан) (16 км)
Погода на Большом Алматинском озере (Алматинская область, Казахстан) (18 км)
Погода в Альмереке (Алматинская область, Казахстан) (21 км)
Погода в Коныролене (Алматинская область, Казахстан) (24 км)
Погода в Рыскулово (Алматинская область, Казахстан) (30 км)
Погода в Илийском (Алматинская область, Казахстан) (33 км)

Пояснения к столбцам:

Ветер - указаны скорость ветра в м/с - средняя за 10 мин, порывы в срок и между сроками (в фигурных скобках) и направление, откуда дует ветер: С - северный, СВ - северо-восточный, В - восточный, ЮВ - юго-восточный, Ю - южный, ЮЗ - юго-западный, З - западный, СЗ - северо-западный.
Видимость - горизонтальная дальность видимости в метрах или километрах. При видимости от 1 до 10 км при отсутствии осадков обычно наблюдается дымка, при ухудшении видимости до 1 км и менее - туман. В сухую погоду видимость может ухудшаться дымом, пылью или мглою.
Явления - указаны атмосферные явления, наблюдавшиеся в срок или в последний час перед сроком; фигурными скобками обозначены явления, наблюдавшиеся между сроками (за 1-3 часа до срока); квадратными скобками обозначены град или гололедные отложения с указанием их диаметра в мм.
Облачность - указаны через наклонную черту общая и нижняя облачность в баллах и высота нижней границы облаков в метрах; квадратными скобками обозначены формы облаков: Ci - перистые, Cs - перисто-слоистые, Cc - перисто-кучевые, Ac - высококучевые, As - высокослоистые, Sc - слоисто-кучевые, Ns - слоисто-дождевые, Cu - кучевые, Cb - кучево-дождевые. Подробнее классификацию облаков см. в Атласе облаков (PDF).
T - Температура воздуха - температура, измеренная на высоте 2 м над землей.
Td - Температура точки росы - температура, при понижении до которой содержащийся в воздухе водяной пар достигнет насыщения.
f - Относительная влажность воздуха - влажноcть воздуха, измеренная на высоте 2 м над землей.
Te - Эффективная температура - температура, которую ощущает одетый по сезону человек в тени. Характеристика душности погоды. При расчете учитывается влияние влажности воздуха и скорости ветра на теплоощущения человека.
Tes - Эффективная температура на солнце - температура, которую ощущает человек, с поправкой на солнечный нагрев. Характеристика знойности погоды. Зависит от высоты солнца над горизонтом, облачности и скорости ветра. Ночью, в пасмурную погоду, а также при ветре 12 м/с и более поправка равна нулю.
P - Атмосферное давление - приведенное к уровню моря атмосферное давление.
Po - Атмосферное давление - измеренное на уровне метеостанции атмосферное давление.
Tmin - Минимальная температура - минимум температуры воздуха на высоте 2 м над землей.
Tmax - Максимальная температура - максимум температуры воздуха на высоте 2 м над землей.
R - Количество осадков - Количество выпавших осадков за период времени, мм. При наведении курсора мыши на число - период времени, за который выпало указанное количество осадков.
R24 - Количество осадков - Количество выпавших осадков за 24 часа, мм.
S - Снежный покров - Высота снежного покрова, см. При наведении курсора мыши на число - состояние снежного покрова и степень покрытия местности в баллах.